Rutland, VT

7:44 PM EDT on May 22, 2017 (GMT -0400)
Rutland State

Weather History for KRUT - November, 2012

Change the Weather History Date:

Monday, November 12, 2012

  Actual Average Record
Temperature  
Mean Temperature 58 °F -  
Max Temperature 72 °F - 72 °F (2012)
Min Temperature 43 °F - 9 °F (1976)
Degree Days  
Heating Degree Days 7    
Month to date heating degree days 309  
Since 1 July heating degree days 944  
Cooling Degree Days 0    
Month to date cooling degree days 0  
Year to date cooling degree days 411  
Growing Degree Days 6 (Base 50)    
Moisture  
Dew Point 41 °F    
Average Humidity 55    
Maximum Humidity 76    
Minimum Humidity 33    
Precipitation  
Precipitation 0.00 in - 1.50 in (1984)
Month to date precipitation 0.00  
Year to date precipitation 21.48  
Sea Level Pressure  
Sea Level Pressure 30.26 in    
Wind  
Wind Speed 11 mph (SE)    
Max Wind Speed 20 mph    
Max Gust Speed 29 mph    
Visibility 10 miles    
Events      
T = Trace of Precipitation, MM = Missing Value Source: NWS Daily Summary

Daily Weather History Graph

Daily Weather History Graph

Search for Another Location

Airport or City:

Trip Planner

Search our weather history database for the weather conditions in past years. The results will help you decide how hot, cold, wet, or windy it might be!

Date:

Astronomy

Nov. 12, 2012 Rise Set
Actual Time 6:42 AM EST 4:29 PM EST
Civil Twilight 6:11 AM EST 4:59 PM EST
Nautical Twilight 5:37 AM EST 5:34 PM EST
Astronomical Twilight 5:03 AM EST 6:08 PM EST
Moon 5:02 AM EST (11/12) 3:33 PM EST (11/12)
Length of Visible Light 10h 48m
Length of Day
9h 47m
Waning Crescent, 2% of the Moon is Illuminated
Nov 12
Waning Crescent
Nov 13
New
Nov 20
First Quarter
Nov 28
Full
Dec 6
Last Quarter

Hourly Weather History & Observations

Time (EST) Temp. Windchill Dew Point Humidity Pressure Visibility Wind Dir Wind Speed Gust Speed Precip Events Conditions
12:15 AM 44.6 °F 42.2 °F 37.4 °F 76% 30.38 in 10.0 mi East 4.6 mph - N/A   Clear
12:35 AM 44.6 °F 41.4 °F 37.4 °F 76% 30.38 in 10.0 mi ESE 5.8 mph - N/A   Clear
1:15 AM 44.6 °F 42.2 °F 37.4 °F 76% 30.38 in 10.0 mi ESE 4.6 mph - N/A   Clear
1:55 AM 44.6 °F 39.7 °F 37.4 °F 76% 30.38 in 10.0 mi ESE 9.2 mph - N/A   Clear
2:15 AM 44.6 °F 43.1 °F 37.4 °F 76% 30.38 in 10.0 mi SE 3.5 mph - N/A   Clear
2:35 AM 44.6 °F 42.2 °F 37.4 °F 76% 30.37 in 10.0 mi East 4.6 mph - N/A   Clear
3:15 AM 44.6 °F 41.4 °F 35.6 °F 71% 30.36 in 10.0 mi ESE 5.8 mph - N/A   Clear
3:35 AM 44.6 °F 41.4 °F 35.6 °F 71% 30.35 in 10.0 mi East 5.8 mph - N/A   Clear
3:55 AM 44.6 °F 41.4 °F 35.6 °F 71% 30.35 in 10.0 mi ESE 5.8 mph - N/A   Clear
4:15 AM 44.6 °F 43.1 °F 35.6 °F 71% 30.35 in 10.0 mi ESE 3.5 mph - N/A   Clear
4:35 AM 46.4 °F 43.5 °F 33.8 °F 62% 30.36 in 10.0 mi East 5.8 mph - N/A   Clear
4:55 AM 46.4 °F 42.9 °F 33.8 °F 62% 30.36 in 10.0 mi ESE 6.9 mph - N/A   Clear
5:15 AM 46.4 °F 43.5 °F 33.8 °F 62% 30.35 in 10.0 mi ESE 5.8 mph - N/A   Clear
5:35 AM 44.6 °F 40.7 °F 33.8 °F 66% 30.35 in 10.0 mi East 6.9 mph - N/A   Clear
5:55 AM 46.4 °F 45.2 °F 33.8 °F 62% 30.36 in 10.0 mi ESE 3.5 mph - N/A   Clear
6:15 AM 44.6 °F 41.4 °F 33.8 °F 66% 30.36 in 10.0 mi ESE 5.8 mph - N/A   Clear
6:35 AM 42.8 °F - 35.6 °F 76% 30.36 in 10.0 mi Calm Calm - N/A   Clear
6:55 AM 44.6 °F 39.2 °F 33.8 °F 66% 30.35 in 10.0 mi ESE 10.4 mph - N/A   Clear
7:15 AM 46.4 °F 41.1 °F 33.8 °F 62% 30.36 in 10.0 mi ESE 11.5 mph - N/A   Clear
7:55 AM 48.2 °F - 35.6 °F 62% 30.35 in 10.0 mi ESE 12.7 mph - N/A   Clear
8:15 AM 50.0 °F - 35.6 °F 58% 30.35 in 10.0 mi ESE 6.9 mph - N/A   Clear
8:35 AM 51.8 °F - 37.4 °F 58% 30.35 in 10.0 mi Calm Calm - N/A   Clear
8:55 AM 55.4 °F - 37.4 °F 51% 30.34 in 10.0 mi ESE 6.9 mph - N/A   Clear
9:15 AM 55.4 °F - 39.2 °F 54% 30.34 in 10.0 mi ESE 6.9 mph - N/A   Clear
9:35 AM 59.0 °F - 39.2 °F 48% 30.32 in 10.0 mi Calm Calm - N/A   Clear
9:55 AM 62.6 °F - 39.2 °F 42% 30.32 in 10.0 mi Calm Calm - N/A   Clear
10:15 AM 64.4 °F - 39.2 °F 40% 30.32 in 10.0 mi SSW 3.5 mph - N/A   Clear
10:35 AM 66.2 °F - 39.2 °F 37% 30.31 in 10.0 mi SSW 5.8 mph - N/A   Clear
10:55 AM 69.8 °F - 39.2 °F 33% 30.30 in 10.0 mi SSW 6.9 mph - N/A   Clear
11:15 AM 69.8 °F - 39.2 °F 33% 30.30 in 10.0 mi South 10.4 mph - N/A   Clear
11:55 AM 69.8 °F - 39.2 °F 33% 30.28 in 10.0 mi South 11.5 mph 17.3 mph N/A   Clear
12:15 PM 69.8 °F - 39.2 °F 33% 30.27 in 10.0 mi South 13.8 mph 18.4 mph N/A   Clear
12:35 PM 71.6 °F - 39.2 °F 31% 30.27 in 10.0 mi SSW 10.4 mph - N/A   Clear
12:55 PM 71.6 °F - 41.0 °F 33% 30.26 in 10.0 mi South 13.8 mph 18.4 mph N/A   Clear
1:15 PM 71.6 °F - 39.2 °F 31% 30.26 in 10.0 mi South 15.0 mph 19.6 mph N/A   Clear
1:35 PM 71.6 °F - 39.2 °F 31% 30.25 in 10.0 mi South 12.7 mph 18.4 mph N/A   Clear
1:55 PM 69.8 °F - 39.2 °F 33% 30.25 in 10.0 mi South 11.5 mph 17.3 mph N/A   Clear
2:15 PM 69.8 °F - 39.2 °F 33% 30.24 in 10.0 mi South 13.8 mph - N/A   Clear
2:35 PM 69.8 °F - 39.2 °F 33% 30.24 in 10.0 mi South 12.7 mph 19.6 mph N/A   Clear
2:55 PM 69.8 °F - 39.2 °F 33% 30.23 in 10.0 mi South 16.1 mph 21.9 mph N/A   Clear
3:15 PM 68.0 °F - 39.2 °F 35% 30.23 in 10.0 mi South 13.8 mph 19.6 mph N/A   Clear
3:55 PM 64.4 °F - 41.0 °F 42% 30.23 in 0.5 mi SE 11.5 mph 23.0 mph N/A   Unknown
4:15 PM 62.6 °F - 42.8 °F 48% 30.23 in 1.0 mi SE 17.3 mph - N/A   Clear
4:35 PM 60.8 °F - 44.6 °F 55% 30.23 in 10.0 mi SE 15.0 mph 21.9 mph N/A   Clear
4:55 PM 59.0 °F - 44.6 °F 59% 30.23 in 10.0 mi SE 18.4 mph 26.5 mph N/A   Clear
5:35 PM 57.2 °F - 46.4 °F 67% 30.23 in 10.0 mi SSE 13.8 mph 18.4 mph N/A   Clear
5:55 PM 57.2 °F - 46.4 °F 67% 30.22 in 10.0 mi SSE 15.0 mph 19.6 mph N/A   Clear
6:15 PM 57.2 °F - 46.4 °F 67% 30.20 in 10.0 mi ESE 16.1 mph 26.5 mph N/A   Clear
6:35 PM 57.2 °F - 46.4 °F 67% 30.20 in 10.0 mi ESE 17.3 mph 21.9 mph N/A   Clear
6:55 PM 57.2 °F - 46.4 °F 67% 30.19 in 10.0 mi ESE 16.1 mph - N/A   Clear
7:15 PM 57.2 °F - 46.4 °F 67% 30.19 in 10.0 mi SE 13.8 mph 20.7 mph N/A   Mostly Cloudy
7:35 PM 57.2 °F - 48.2 °F 72% 30.16 in 10.0 mi ESE 18.4 mph 23.0 mph N/A   Overcast
7:55 PM 57.2 °F - 48.2 °F 72% 30.15 in 10.0 mi ESE 17.3 mph 23.0 mph N/A   Mostly Cloudy
8:15 PM 57.2 °F - 48.2 °F 72% 30.15 in 10.0 mi ESE 10.4 mph - N/A   Mostly Cloudy
8:35 PM 57.2 °F - 48.2 °F 72% 30.15 in 10.0 mi SE 10.4 mph - N/A   Partly Cloudy
8:55 PM 60.8 °F - 46.4 °F 59% 30.14 in 10.0 mi South 17.3 mph - N/A   Clear
9:15 PM 60.8 °F - 46.4 °F 59% 30.13 in 10.0 mi South 17.3 mph 25.3 mph N/A   Clear
9:35 PM 60.8 °F - 46.4 °F 59% 30.14 in 10.0 mi South 10.4 mph 21.9 mph N/A   Clear
9:55 PM 62.6 °F - 46.4 °F 55% 30.13 in 10.0 mi South 19.6 mph 26.5 mph N/A   Mostly Cloudy
10:15 PM 62.6 °F - 46.4 °F 55% 30.12 in 10.0 mi SSE 13.8 mph 27.6 mph N/A   Overcast
10:35 PM 62.6 °F - 48.2 °F 59% 30.11 in 10.0 mi South 19.6 mph 31.1 mph N/A   Mostly Cloudy
10:55 PM 62.6 °F - 46.4 °F 55% 30.10 in 10.0 mi South 19.6 mph 28.8 mph N/A   Scattered Clouds
11:15 PM 62.6 °F - 48.2 °F 59% 30.09 in 10.0 mi South 18.4 mph 25.3 mph N/A   Mostly Cloudy
11:35 PM 62.6 °F - 48.2 °F 59% 30.08 in 10.0 mi South 15.0 mph 29.9 mph N/A   Overcast
11:55 PM 62.6 °F - 48.2 °F 59% 30.08 in 10.0 mi South 15.0 mph 21.9 mph N/A   Overcast